Flag for Cambodia Weather past 2 weeks in Phnom Penh, Cambodia

Now
81 °F

Passing clouds.


Feels Like: 87 °F
Forecast: 76 / 90 °F
Wind: 5 mph from Southwest

Location: Phnom-Penh / Pochentong

Current Time: Jul 26, 2014 at 1:24:08 AM

Latest Report: Jul 26, 2014 at 12:30 AM


Visibility: 5 mi

Pressure: 29.77 "Hg

Humidity: 89%

Dew point: 77 °F

Location of Phnom PenhLocation

Historic Weather in Phnom Penh — Graph

°F

Phnom Penh temperature yesterday

Maximum temperature yesterday: 90 °F (at 12:30 PM)
Minimum temperature yesterday: 77 °F (at 2:00 PM)
Average temperature yesterday: 84 °F

Past Weeks' High & Low Weather Summary

 TemperatureHumidityPressure
High95 °F (Jul 12, 12:30 PM)100% (Jul 22, 6:30 AM)29.80 "Hg (Jul 22, 6:30 AM)
Low77 °F (Jul 20, 6:00 AM)36% (Jul 16, 1:00 PM)29.59 "Hg (Jul 12, 2:30 PM)
Average85 °F68%29.71 "Hg
* Reported Midnight between Jul 10 and Jul 11 — Midnight between Jul 25 and Jul 26, Phnom Penh, Weather by CustomWeather, © 2014

Note: Actual official high and low records may vary slightly from our data, if they occured in-between our weather recording intervals... More about our weather records

Advertising

Phnom Penh weather history for previous 24 hours

 ConditionsComfort  
Time TempWeatherWind HumidityBarometerVisibility
12:00 AM
Jul 26
81 °FPassing clouds.6 mph84%29.77 "Hg5 mi
11:30 PM
Jul 25
82 °FPassing clouds.7 mph79%29.77 "Hg5 mi
11:00 PM82 °FPassing clouds.5 mph79%29.77 "Hg5 mi
10:30 PM84 °FPassing clouds.5 mph79%29.77 "Hg5 mi
10:00 PM84 °FPassing clouds.2 mph74%29.77 "Hg5 mi
9:30 PM84 °FPassing clouds.2 mph74%29.77 "Hg5 mi
9:00 PM82 °FPassing clouds.1 mph89%29.77 "Hg6 mi
8:30 PM82 °FPassing clouds.3 mph89%29.74 "HgN/A
8:00 PM82 °FPassing clouds.1 mph84%29.74 "HgN/A
7:30 PM86 °FPassing clouds.3 mph70%29.71 "HgN/A
7:00 PM84 °FPassing clouds.6 mph74%29.71 "HgN/A
6:30 PM86 °FPassing clouds.8 mph70%29.68 "HgN/A
6:00 PM88 °FScattered clouds.8 mph66%29.68 "HgN/A
5:30 PM90 °FScattered clouds.9 mph63%29.68 "HgN/A
5:00 PM90 °FScattered clouds.10 mph63%29.68 "HgN/A
4:30 PM88 °FScattered clouds.10 mph62%29.68 "HgN/A
4:00 PM86 °FScattered clouds.5 mph70%29.68 "HgN/A
3:30 PM84 °FScattered clouds.5 mph74%29.68 "HgN/A
3:00 PM81 °FScattered clouds.3 mph84%29.68 "HgN/A
2:30 PM79 °FScattered clouds.1 mph79%29.71 "HgN/A
2:00 PM77 °FRain. Scattered clouds.5 mph89%29.74 "Hg3 mi
1:30 PM79 °FHeavy rain. Scattered clouds.21 mph84%29.77 "Hg1 mi
1:00 PM90 °FHot.N/A63%29.74 "HgN/A
12:30 PM90 °FScattered clouds.6 mph63%29.77 "HgN/A
12:00 PM88 °FScattered clouds.7 mph66%29.77 "HgN/A
11:30 AM84 °FPartly sunny.8 mph74%29.77 "HgN/A
11:00 AM88 °FScattered clouds.13 mph66%29.77 "HgN/A
10:30 AM86 °FScattered clouds.12 mph75%29.77 "HgN/A
10:00 AM86 °FScattered clouds.10 mph75%29.77 "HgN/A
9:30 AM84 °FScattered clouds.10 mph79%29.77 "HgN/A
9:00 AM84 °FScattered clouds.9 mph79%29.77 "HgN/A
8:30 AM84 °FScattered clouds.9 mph79%29.77 "HgN/A
8:00 AM82 °FScattered clouds.9 mph84%29.74 "HgN/A
7:30 AM82 °FScattered clouds.7 mph84%29.74 "HgN/A
7:00 AM81 °FScattered clouds.5 mph89%29.74 "HgN/A
6:30 AM81 °FScattered clouds.5 mph84%29.74 "HgN/A
6:00 AM79 °FScattered clouds.3 mph89%29.71 "HgN/A
Weather by CustomWeather, © 2014

See weather overviewHow to use our weather pages